Flag for Malta Weather past 2 weeks in Valletta, Malta

Now
50 °F

Passing clouds.


Feels Like: 45 °F
Forecast: 51 / 56 °F
Wind: 13 mph from Northwest

Location: Luqa

Current Time: Mar 6, 2015 at 4:25:44 AM

Latest Report: Mar 6, 2015 at 3:45 AM


Visibility: N/A

Pressure: 29.86 "Hg

Humidity: 82%

Dew point: 45 °F

Location of VallettaLocation

Historic Weather in Valletta — Graph

°F

Valletta temperature yesterday

Maximum temperature yesterday: 59 °F (at 12:15 AM)
Minimum temperature yesterday: 52 °F (at 9:15 PM)
Average temperature yesterday: 55 °F

Past Weeks' High & Low Weather Summary

 TemperatureHumidityPressure
High66 °F (Mar 4, 10:45 AM)100% (Feb 27, 5:15 AM)30.39 "Hg (Feb 27, 5:15 AM)
Low43 °F (Feb 20, 4:15 AM)51% (Feb 19, 9:15 AM)29.45 "Hg (Feb 22, 8:45 AM)
Average54 °F77%29.95 "Hg
* Reported Feb 19 3:15 AM — Mar 6 3:15 AM, Valletta, Weather by CustomWeather, © 2015

Note: Actual official high and low records may vary slightly from our data, if they occured in-between our weather recording intervals... More about our weather records

Advertising

Valletta weather history for previous 24 hours

 ConditionsComfort  
Time TempWeatherWind HumidityBarometerVisibility
3:15 AM
Fri, Mar 6
50 °FClear.17 mph82%29.86 "Hg10 mi
2:45 AM50 °FPassing clouds.18 mph82%29.86 "HgN/A
2:15 AM50 °FPassing clouds.8 mph88%29.86 "HgN/A
1:45 AM50 °FPassing clouds.15 mph82%29.89 "HgN/A
1:15 AM52 °FSprinkles. Passing clouds.16 mph82%29.89 "HgN/A
12:45 AM52 °FPassing clouds.17 mph82%29.89 "HgN/A
12:15 AM50 °FSprinkles. Passing clouds.17 mph88%29.89 "HgN/A
11:45 PM
Thu, Mar 5
54 °FPassing clouds.17 mph72%29.89 "HgN/A
11:15 PM54 °FPassing clouds.18 mph72%29.89 "HgN/A
10:45 PM52 °FPassing clouds.20 mph77%29.89 "HgN/A
10:15 PM52 °FPassing clouds.20 mph77%29.89 "HgN/A
9:45 PM52 °FSprinkles. Passing clouds.21 mph77%29.92 "HgN/A
9:15 PM52 °FPassing clouds.20 mph77%29.89 "HgN/A
8:45 PM54 °FPassing clouds.23 mph67%29.89 "HgN/A
8:15 PM54 °FPassing clouds.25 mph63%29.89 "HgN/A
7:45 PM54 °FPassing clouds.24 mph67%29.89 "HgN/A
7:15 PM54 °FPassing clouds.24 mph63%29.89 "HgN/A
6:45 PM54 °FPassing clouds.21 mph67%29.89 "HgN/A
6:15 PM54 °FPassing clouds.23 mph58%29.89 "HgN/A
5:45 PM54 °FPartly sunny.20 mph63%29.89 "HgN/A
5:15 PM54 °FScattered clouds.21 mph63%29.89 "HgN/A
4:45 PM54 °FScattered clouds.22 mph58%29.89 "HgN/A
4:15 PM54 °FPartly sunny.18 mph63%29.89 "HgN/A
3:45 PM54 °FScattered clouds.18 mph58%29.89 "HgN/A
3:15 PM54 °FScattered clouds.18 mph58%29.89 "HgN/A
2:45 PM54 °FScattered clouds.17 mph58%29.92 "HgN/A
2:15 PM54 °FScattered clouds.20 mph58%29.92 "HgN/A
1:45 PM54 °FPassing clouds.21 mph58%29.92 "HgN/A
1:15 PM54 °FScattered clouds.17 mph58%29.95 "HgN/A
12:45 PM54 °FPassing clouds.16 mph58%29.95 "HgN/A
12:15 PM55 °FScattered clouds.15 mph67%29.95 "HgN/A
11:45 AM54 °FPassing clouds.17 mph72%29.95 "HgN/A
11:15 AM54 °FScattered clouds.17 mph72%29.95 "HgN/A
10:45 AM55 °FScattered clouds.17 mph67%29.98 "HgN/A
10:15 AM55 °FScattered clouds.17 mph67%29.98 "HgN/A
9:45 AM55 °FBroken clouds.18 mph72%29.98 "HgN/A
9:15 AM55 °FBroken clouds.18 mph72%29.98 "HgN/A
8:45 AM55 °FPartly sunny.16 mph77%29.98 "HgN/A
8:15 AM55 °FPartly sunny.18 mph77%29.95 "HgN/A
7:45 AM55 °FPartly sunny.21 mph77%29.95 "HgN/A
7:15 AM55 °FPartly sunny.22 mph88%29.95 "HgN/A
6:45 AM57 °FLight rain. Partly sunny.14 mph88%29.92 "Hg4 mi
6:15 AM57 °FPassing clouds.9 mph88%29.92 "HgN/A
5:45 AM57 °FPassing clouds.10 mph88%29.92 "HgN/A
5:15 AM59 °FPartly cloudy.17 mph82%29.92 "HgN/A
4:45 AM59 °FClear.13 mph82%29.92 "Hg10 mi
4:15 AM59 °FClear.16 mph82%29.92 "Hg10 mi
Weather by CustomWeather, © 2015

See weather overviewHow to use our weather pages